Flag for Germany Weather past 2 weeks in Tönisvorst, North Rhine-Westphalia, Germany

Now
66 °F

Light rain. Partly sunny.


Feels Like: 66 °F
Forecast: 54 / 80 °F
Wind: 3 mph from North

Location: Monchengladbach Airport

Current Time: Aug 4, 2015 at 2:11:04 PM

Latest Report: Aug 4, 2015 at 1:20 PM


Visibility: 4 mi

Pressure: 29.92 "Hg

Humidity: 100%

Dew point: 66 °F

Location of TönisvorstLocation

Historic Weather in Tönisvorst — Graph

°F

Tönisvorst temperature yesterday

Maximum temperature yesterday: 91 °F (at 4:20 PM)
Minimum temperature yesterday: 66 °F (at 7:50 AM)
Average temperature yesterday: 84 °F

Past Weeks' High & Low Weather Summary

 TemperatureHumidityPressure
High91 °F (Aug 3, 4:20 PM)100% (Jul 20, 6:20 PM)30.15 "Hg (Jul 20, 6:20 PM)
Low54 °F (Jul 31, 8:20 AM)24% (Aug 2, 4:50 PM)29.50 "Hg (Jul 25, 7:50 AM)
Average68 °F62%29.89 "Hg
* Reported Jul 20 12:20 PM — Aug 4 12:50 PM, Tönisvorst, Weather by CustomWeather, © 2015

Note: Actual official high and low records may vary slightly from our data, if they occured in-between our weather recording intervals... More about our weather records

Advertising

Tönisvorst weather history for previous 24 hours

 ConditionsComfort  
Time TempWeatherWind HumidityBarometerVisibility
12:50 PM
Tue, Aug 4
66 °FLight rain. Fog.2 mph100%29.92 "Hg3 mi
12:20 PM66 °FLight rain. Partly sunny.3 mph94%29.92 "HgN/A
11:50 AM64 °FLight rain. Partly sunny.3 mph100%29.92 "Hg4 mi
11:20 AM66 °FRain. Partly sunny.6 mph88%29.92 "Hg3 mi
10:50 AM68 °FRain. Partly sunny.5 mph83%29.89 "Hg4 mi
10:20 AM68 °FLight rain. Partly sunny.9 mph78%29.86 "HgN/A
9:50 AM72 °FBroken clouds.9 mph65%29.86 "HgN/A
9:20 AM72 °FScattered showers. Partly sunny.8 mph69%29.83 "HgN/A
8:50 AM70 °FScattered showers. Partly sunny.7 mph78%29.83 "HgN/A
8:20 AM66 °FScattered showers. Partly sunny.2 mph94%29.83 "Hg5 mi
7:50 AM66 °FSprinkles. Partly sunny.3 mph94%29.86 "Hg4 mi
8:50 PM
Mon, Aug 3
77 °FClear.2 mph54%29.89 "Hg10 mi
8:20 PM86 °FPassing clouds.5 mph31%29.89 "HgN/A
7:50 PM90 °FPassing clouds.5 mph29%29.89 "HgN/A
7:20 PM90 °FPassing clouds.6 mph27%29.89 "HgN/A
6:50 PM90 °FClear.7 mph27%29.89 "Hg10 mi
6:20 PM90 °FPassing clouds.6 mph29%29.89 "HgN/A
5:50 PM91 °FClear.8 mph28%29.89 "Hg10 mi
5:20 PM91 °FClear.8 mph26%29.92 "Hg10 mi
4:50 PM90 °FClear.9 mph29%29.92 "Hg10 mi
4:20 PM91 °FClear.7 mph26%29.92 "Hg10 mi
3:50 PM90 °FClear.8 mph27%29.92 "Hg10 mi
3:20 PM90 °FClear.8 mph27%29.92 "Hg10 mi
2:50 PM90 °FClear.6 mph26%29.95 "Hg10 mi
2:20 PM90 °FClear.7 mph29%29.95 "Hg10 mi
Weather by CustomWeather, © 2015

See weather overviewHow to use our weather pages